EZS011 ENGM-EDDB

Flight info

Callsign EZS011
Flight time 1h 19m
Altitude 31000
Route OKSAT L996 GETPA/N0456F370 L996 KELIN DCT SALLO DCT RODEP T280 KETAP KETAP1R
Aircraft A319/M-SDE3FGHIRWY/LB1

Departure

Time 2026-05-06 18:06
Airport Oslo-Gardermoen International Airport (ENGM)

Arrival

Time 2026-05-06 19:25
Airport Berlin Brandenburg Airport (EDDB)
Time Latitude Longitude Altitude Speed Heading
2026-05-06 17:33 60.19394 11.08827 680 ft 0 kts 196°
2026-05-06 17:54 60.19403 11.08832 681 ft 4 kts 196°
2026-05-06 17:54 60.19428 11.08847 683 ft 4 kts 196°
2026-05-06 17:54 60.19454 11.08862 681 ft 4 kts 196°
2026-05-06 17:55 60.19479 11.08876 680 ft 2 kts 196°
2026-05-06 17:55 60.19480 11.08876 678 ft 2 kts 196°
2026-05-06 17:57 60.19477 11.08873 680 ft 1 kts 206°
2026-05-06 17:57 60.19478 11.08863 681 ft 1 kts 262°
2026-05-06 17:58 60.19485 11.08844 679 ft 5 kts 298°
2026-05-06 17:58 60.19508 11.08724 677 ft 13 kts 287°
2026-05-06 17:58 60.19555 11.08556 678 ft 13 kts 346°
2026-05-06 17:58 60.19646 11.08598 678 ft 14 kts 16°
2026-05-06 17:59 60.19741 11.08653 679 ft 14 kts 16°
2026-05-06 17:59 60.19839 11.08710 675 ft 15 kts 16°
2026-05-06 17:59 60.19939 11.08768 680 ft 15 kts 16°
2026-05-06 17:59 60.20041 11.08826 680 ft 15 kts 16°
2026-05-06 18:00 60.20145 11.08886 681 ft 16 kts 16°
2026-05-06 18:00 60.20250 11.08947 681 ft 16 kts 16°
2026-05-06 18:00 60.20359 11.09011 682 ft 16 kts 16°
2026-05-06 18:00 60.20471 11.09076 682 ft 17 kts 16°
2026-05-06 18:01 60.20587 11.09143 682 ft 18 kts 16°
2026-05-06 18:01 60.20705 11.09210 683 ft 18 kts 15°
2026-05-06 18:01 60.20824 11.09278 682 ft 18 kts 15°
2026-05-06 18:01 60.20943 11.09345 682 ft 18 kts 15°
2026-05-06 18:02 60.21062 11.09413 680 ft 18 kts 16°
2026-05-06 18:02 60.21182 11.09481 685 ft 18 kts 16°
2026-05-06 18:02 60.21305 11.09551 683 ft 19 kts 16°
2026-05-06 18:02 60.21432 11.09626 684 ft 19 kts 17°
2026-05-06 18:03 60.21539 11.09553 685 ft 13 kts 301°
2026-05-06 18:03 60.21554 11.09462 680 ft 6 kts 286°
2026-05-06 18:03 60.21563 11.09396 684 ft 0 kts 286°
2026-05-06 18:03 60.21565 11.09385 684 ft 3 kts 286°
2026-05-06 18:04 60.21576 11.09307 684 ft 9 kts 285°
2026-05-06 18:04 60.21570 11.09154 683 ft 13 kts 229°
2026-05-06 18:04 60.21532 11.09124 684 ft 0 kts 196°
2026-05-06 18:05 60.21518 11.09116 684 ft 9 kts 196°
2026-05-06 18:05 60.21200 11.08931 682 ft 88 kts 196°
2026-05-06 18:05 60.20393 11.08463 680 ft 154 kts 196°
2026-05-06 18:05 60.19308 11.07843 1171 ft 164 kts 199°
2026-05-06 18:06 60.18213 11.07166 1937 ft 165 kts 200°
2026-05-06 18:06 60.17072 11.06299 2411 ft 186 kts 213°
2026-05-06 18:06 60.16128 11.04373 2809 ft 206 kts 240°
2026-05-06 18:06 60.15512 11.01559 3255 ft 233 kts 248°
2026-05-06 18:07 60.14860 10.98415 3927 ft 253 kts 248°
2026-05-06 18:07 60.14297 10.95023 4988 ft 257 kts 259°
2026-05-06 18:07 60.13650 10.91685 6005 ft 264 kts 231°
2026-05-06 18:07 60.12155 10.89562 7077 ft 270 kts 202°
2026-05-06 18:08 60.10281 10.89079 8108 ft 278 kts 175°
2026-05-06 18:08 60.08426 10.90280 9203 ft 283 kts 157°
2026-05-06 18:08 60.06653 10.92026 10288 ft 285 kts 155°
2026-05-06 18:08 60.04845 10.93965 10844 ft 308 kts 151°
2026-05-06 18:09 60.02997 10.96459 11194 ft 333 kts 148°
2026-05-06 18:09 60.01056 10.99233 11685 ft 351 kts 147°
2026-05-06 18:09 59.99062 11.02166 12420 ft 360 kts 147°
2026-05-06 18:09 59.97033 11.05170 13191 ft 367 kts 148°
2026-05-06 18:10 59.94964 11.08217 13947 ft 373 kts 148°
2026-05-06 18:10 59.92851 11.11304 14672 ft 378 kts 149°
2026-05-06 18:10 59.90716 11.14394 15427 ft 382 kts 149°
2026-05-06 18:10 59.88551 11.17505 16186 ft 385 kts 150°
2026-05-06 18:11 59.86359 11.20643 16943 ft 389 kts 150°
2026-05-06 18:11 59.84153 11.23795 17696 ft 393 kts 150°
2026-05-06 18:11 59.81919 11.26979 18359 ft 398 kts 150°
2026-05-06 18:11 59.79652 11.30201 18944 ft 403 kts 150°
2026-05-06 18:12 59.77364 11.33459 19546 ft 406 kts 150°
2026-05-06 18:12 59.75056 11.36744 20160 ft 410 kts 151°
2026-05-06 18:12 59.72757 11.40015 20759 ft 414 kts 151°
2026-05-06 18:12 59.70372 11.43400 21344 ft 418 kts 151°
2026-05-06 18:13 59.67997 11.46762 21934 ft 422 kts 152°
2026-05-06 18:13 59.65601 11.50153 22474 ft 425 kts 151°
2026-05-06 18:13 59.63192 11.53556 23061 ft 428 kts 151°
2026-05-06 18:13 59.60755 11.56995 23601 ft 431 kts 152°
2026-05-06 18:14 59.58308 11.60440 24075 ft 434 kts 152°
2026-05-06 18:14 59.55875 11.63849 24538 ft 436 kts 152°
2026-05-06 18:14 59.53354 11.67147 25015 ft 431 kts 160°
2026-05-06 18:14 59.50564 11.69200 25491 ft 417 kts 175°
2026-05-06 18:15 59.47755 11.70116 25967 ft 415 kts 179°
2026-05-06 18:15 59.44896 11.70968 26457 ft 416 kts 179°
2026-05-06 18:15 59.42031 11.71810 26899 ft 418 kts 180°
2026-05-06 18:15 59.39151 11.72651 27407 ft 418 kts 180°
2026-05-06 18:16 59.36269 11.73500 27872 ft 419 kts 180°
2026-05-06 18:16 59.33374 11.74354 28243 ft 421 kts 179°
2026-05-06 18:16 59.30466 11.75202 28647 ft 423 kts 179°
2026-05-06 18:16 59.27549 11.76050 29056 ft 425 kts 179°
2026-05-06 18:17 59.24616 11.76903 29442 ft 427 kts 179°
2026-05-06 18:17 59.21669 11.77764 29819 ft 429 kts 179°
2026-05-06 18:17 59.18716 11.78625 30307 ft 427 kts 179°
2026-05-06 18:17 59.15782 11.79486 30739 ft 427 kts 179°
2026-05-06 18:18 59.12846 11.80347 30923 ft 426 kts 179°
2026-05-06 18:18 59.09924 11.81203 30956 ft 425 kts 179°
2026-05-06 18:18 59.04070 11.82899 30941 ft 426 kts 179°
2026-05-06 18:19 58.98188 11.84591 31248 ft 428 kts 179°
2026-05-06 18:19 58.95248 11.85445 31714 ft 426 kts 179°
2026-05-06 18:19 58.92356 11.86285 32158 ft 425 kts 179°
2026-05-06 18:20 58.89436 11.87123 32595 ft 424 kts 179°
2026-05-06 18:20 58.86518 11.87950 33037 ft 423 kts 179°
2026-05-06 18:20 58.83609 11.88778 33473 ft 423 kts 179°
2026-05-06 18:20 58.80698 11.89610 33902 ft 422 kts 179°
2026-05-06 18:21 58.77799 11.90437 34260 ft 422 kts 179°
2026-05-06 18:21 58.74892 11.91268 34546 ft 423 kts 179°
2026-05-06 18:21 58.71979 11.92097 34831 ft 424 kts 178°
2026-05-06 18:21 58.69043 11.92929 35101 ft 426 kts 178°
2026-05-06 18:22 58.66114 11.93755 35365 ft 427 kts 178°
2026-05-06 18:22 58.63166 11.94580 35629 ft 429 kts 178°
2026-05-06 18:22 58.60210 11.95409 35889 ft 430 kts 178°
2026-05-06 18:22 58.57249 11.96242 36133 ft 431 kts 178°
2026-05-06 18:23 58.54270 11.97079 36389 ft 432 kts 178°
2026-05-06 18:23 58.51299 11.97916 36634 ft 433 kts 177°
2026-05-06 18:23 58.48307 11.98762 36859 ft 435 kts 177°
2026-05-06 18:23 58.45310 11.99604 36921 ft 436 kts 177°
2026-05-06 18:24 58.39307 12.01276 36944 ft 436 kts 177°
2026-05-06 18:24 58.33309 12.02944 36942 ft 436 kts 177°
2026-05-06 18:25 58.27302 12.04602 36949 ft 436 kts 177°
2026-05-06 18:25 58.21306 12.06450 36943 ft 438 kts 174°
2026-05-06 18:26 58.15347 12.09069 36957 ft 441 kts 172°
2026-05-06 18:26 58.09399 12.11906 36946 ft 440 kts 172°
2026-05-06 18:27 58.03480 12.14576 36951 ft 439 kts 173°
2026-05-06 18:27 57.97480 12.17145 36947 ft 440 kts 173°
2026-05-06 18:28 57.91554 12.19665 36951 ft 440 kts 173°
2026-05-06 18:28 57.86153 12.21970 36936 ft 440 kts 173°
2026-05-06 18:29 57.80178 12.24530 36920 ft 440 kts 172°
2026-05-06 18:29 57.74221 12.27090 36933 ft 439 kts 173°
2026-05-06 18:30 57.69225 12.29218 36942 ft 439 kts 173°
2026-05-06 18:30 57.63264 12.31744 36949 ft 439 kts 173°
2026-05-06 18:31 57.57343 12.34246 36930 ft 439 kts 172°
2026-05-06 18:31 57.51387 12.36747 36941 ft 439 kts 173°
2026-05-06 18:32 57.45389 12.39260 36949 ft 439 kts 172°
2026-05-06 18:32 57.39472 12.41731 36953 ft 439 kts 172°
2026-05-06 18:33 57.33483 12.44237 36954 ft 439 kts 172°
2026-05-06 18:33 57.27528 12.46727 36935 ft 438 kts 172°
2026-05-06 18:34 57.21623 12.49181 36946 ft 438 kts 172°
2026-05-06 18:34 57.15673 12.51618 36950 ft 438 kts 172°
2026-05-06 18:35 57.09730 12.54061 36943 ft 438 kts 172°
2026-05-06 18:35 57.03786 12.56506 36954 ft 438 kts 172°
2026-05-06 18:36 56.97834 12.58936 36933 ft 438 kts 172°
2026-05-06 18:36 56.91891 12.61357 36948 ft 438 kts 172°
2026-05-06 18:37 56.85941 12.63775 36954 ft 438 kts 172°
2026-05-06 18:37 56.79994 12.66189 36966 ft 438 kts 172°
2026-05-06 18:38 56.74044 12.68584 36971 ft 438 kts 172°
2026-05-06 18:38 56.68092 12.70971 36953 ft 438 kts 172°
2026-05-06 18:39 56.62136 12.73366 36967 ft 439 kts 172°
2026-05-06 18:40 56.53189 12.76931 36967 ft 439 kts 172°
2026-05-06 18:40 56.47220 12.79309 36960 ft 439 kts 172°
2026-05-06 18:41 56.41261 12.81675 36950 ft 439 kts 172°
2026-05-06 18:41 56.35293 12.84035 36962 ft 439 kts 172°
2026-05-06 18:42 56.29323 12.86393 36969 ft 439 kts 172°
2026-05-06 18:42 56.23345 12.88733 36980 ft 440 kts 172°
2026-05-06 18:43 56.17368 12.91074 36986 ft 440 kts 172°
2026-05-06 18:43 56.11429 12.93389 36975 ft 440 kts 172°
2026-05-06 18:44 56.05450 12.95711 36984 ft 439 kts 172°
2026-05-06 18:44 55.99476 12.98030 36981 ft 439 kts 172°
2026-05-06 18:45 55.93500 13.00354 36982 ft 440 kts 172°
2026-05-06 18:45 55.87535 13.02652 36969 ft 440 kts 172°
2026-05-06 18:46 55.81570 13.04935 36958 ft 440 kts 172°
2026-05-06 18:46 55.75570 13.07002 36972 ft 438 kts 175°
2026-05-06 18:47 55.69537 13.08322 36988 ft 436 kts 178°
2026-05-06 18:47 55.63505 13.09434 36990 ft 436 kts 178°
2026-05-06 18:48 55.57477 13.10674 36975 ft 436 kts 176°
2026-05-06 18:48 55.51459 13.12028 36978 ft 436 kts 176°
2026-05-06 18:49 55.45477 13.13381 36977 ft 436 kts 176°
2026-05-06 18:49 55.39455 13.14702 36979 ft 436 kts 176°
2026-05-06 18:50 55.33431 13.16009 36982 ft 436 kts 176°
2026-05-06 18:50 55.27408 13.17317 36984 ft 436 kts 176°
2026-05-06 18:51 55.21812 13.18531 36983 ft 436 kts 176°
2026-05-06 18:51 55.15787 13.19842 36980 ft 436 kts 176°
2026-05-06 18:52 55.09769 13.21146 36979 ft 436 kts 176°
2026-05-06 18:52 55.03747 13.22433 36954 ft 436 kts 176°
2026-05-06 18:53 54.97728 13.23721 36951 ft 436 kts 176°
2026-05-06 18:53 54.91713 13.25010 36955 ft 435 kts 176°
2026-05-06 18:54 54.85702 13.26292 36960 ft 435 kts 176°
2026-05-06 18:54 54.79695 13.27553 36937 ft 430 kts 179°
2026-05-06 18:54 54.76750 13.27369 36451 ft 420 kts 191°
2026-05-06 18:55 54.73879 13.26612 35938 ft 415 kts 192°
2026-05-06 18:55 54.71072 13.25857 35450 ft 413 kts 192°
2026-05-06 18:55 54.68203 13.25078 34958 ft 411 kts 191°
2026-05-06 18:55 54.65374 13.24310 34481 ft 411 kts 191°
2026-05-06 18:56 54.62592 13.23557 34009 ft 410 kts 191°
2026-05-06 18:56 54.59769 13.22797 33462 ft 411 kts 191°
2026-05-06 18:56 54.56942 13.22039 32912 ft 412 kts 191°
2026-05-06 18:56 54.54111 13.21284 32360 ft 413 kts 190°
2026-05-06 18:57 54.51268 13.20531 31832 ft 413 kts 190°
2026-05-06 18:57 54.48423 13.19780 31314 ft 414 kts 189°
2026-05-06 18:57 54.45577 13.19032 30815 ft 415 kts 189°
2026-05-06 18:57 54.42720 13.18283 30299 ft 416 kts 189°
2026-05-06 18:58 54.39853 13.17527 29773 ft 417 kts 189°
2026-05-06 18:58 54.36979 13.16770 29196 ft 419 kts 189°
2026-05-06 18:58 54.34084 13.16010 28634 ft 422 kts 189°
2026-05-06 18:58 54.31177 13.15247 28087 ft 424 kts 189°
2026-05-06 18:59 54.28245 13.14478 27884 ft 426 kts 189°
2026-05-06 18:59 54.25317 13.13710 27934 ft 427 kts 189°
2026-05-06 18:59 54.22374 13.12939 27922 ft 428 kts 189°
2026-05-06 18:59 54.19428 13.12166 27923 ft 428 kts 189°
2026-05-06 19:00 54.16484 13.11397 27924 ft 428 kts 189°
2026-05-06 19:00 54.13541 13.10635 27921 ft 428 kts 189°
2026-05-06 19:00 54.10596 13.09876 27917 ft 428 kts 189°
2026-05-06 19:00 54.08647 13.09375 27703 ft 428 kts 189°
2026-05-06 19:01 54.04700 13.08356 27167 ft 430 kts 189°
2026-05-06 19:01 54.01738 13.07585 26757 ft 429 kts 190°
2026-05-06 19:01 53.98836 13.06833 26376 ft 429 kts 190°
2026-05-06 19:01 53.95884 13.06071 25992 ft 429 kts 190°
2026-05-06 19:02 53.92920 13.05305 25610 ft 431 kts 190°
2026-05-06 19:02 53.89911 13.04533 25234 ft 432 kts 190°
2026-05-06 19:02 53.86979 13.03784 24871 ft 432 kts 190°
2026-05-06 19:02 53.84010 13.03023 24507 ft 431 kts 190°
2026-05-06 19:03 53.81052 13.02266 24146 ft 429 kts 190°
2026-05-06 19:03 53.78102 13.01509 23786 ft 427 kts 191°
2026-05-06 19:03 53.75179 13.00764 23426 ft 422 kts 191°
2026-05-06 19:03 53.72289 13.00030 22996 ft 419 kts 191°
2026-05-06 19:04 53.69412 12.99297 22596 ft 417 kts 191°
2026-05-06 19:04 53.66551 12.98567 22189 ft 414 kts 191°
2026-05-06 19:04 53.63714 12.97845 21784 ft 412 kts 191°
2026-05-06 19:04 53.60887 12.97125 21384 ft 410 kts 191°
2026-05-06 19:05 53.58074 12.96414 20992 ft 407 kts 191°
2026-05-06 19:05 53.55276 12.95710 20606 ft 405 kts 191°
2026-05-06 19:05 53.52495 12.95012 20214 ft 403 kts 191°
2026-05-06 19:05 53.49733 12.94318 19838 ft 400 kts 191°
2026-05-06 19:06 53.46985 12.93626 19470 ft 398 kts 191°
2026-05-06 19:06 53.44252 12.92936 19100 ft 396 kts 191°
2026-05-06 19:06 53.41532 12.92247 18738 ft 394 kts 191°
2026-05-06 19:06 53.38830 12.91564 18381 ft 392 kts 191°
2026-05-06 19:07 53.36137 12.90888 18006 ft 390 kts 191°
2026-05-06 19:07 53.34362 12.90445 17730 ft 390 kts 191°
2026-05-06 19:07 53.30784 12.89552 17192 ft 388 kts 191°
2026-05-06 19:07 53.28116 12.88881 16783 ft 386 kts 191°
2026-05-06 19:08 53.25498 12.88224 16398 ft 384 kts 191°
2026-05-06 19:08 53.22824 12.87555 16000 ft 383 kts 191°
2026-05-06 19:08 53.20232 12.86910 15624 ft 381 kts 191°
2026-05-06 19:08 53.17618 12.86262 15235 ft 380 kts 191°
2026-05-06 19:09 53.15024 12.85619 14868 ft 380 kts 191°
2026-05-06 19:09 53.12412 12.84971 14496 ft 378 kts 191°
2026-05-06 19:09 53.09782 12.84320 14129 ft 377 kts 191°
2026-05-06 19:09 53.07231 12.83690 13777 ft 375 kts 191°
2026-05-06 19:10 53.04651 12.83051 13379 ft 374 kts 191°
2026-05-06 19:10 53.02092 12.82418 12969 ft 371 kts 191°
2026-05-06 19:10 52.99538 12.81789 12574 ft 370 kts 191°
2026-05-06 19:10 52.97000 12.81168 12184 ft 368 kts 191°
2026-05-06 19:11 52.94471 12.80546 11799 ft 366 kts 191°
2026-05-06 19:11 52.91957 12.79926 11420 ft 365 kts 191°
2026-05-06 19:11 52.89452 12.79310 11046 ft 363 kts 191°
2026-05-06 19:11 52.86958 12.78698 10673 ft 362 kts 191°
2026-05-06 19:12 52.84478 12.78091 10298 ft 360 kts 191°
2026-05-06 19:12 52.81997 12.77484 9943 ft 359 kts 191°
2026-05-06 19:12 52.79553 12.76961 9810 ft 347 kts 185°
2026-05-06 19:12 52.77224 12.77373 9844 ft 329 kts 168°
2026-05-06 19:13 52.75163 12.78705 9843 ft 312 kts 159°
2026-05-06 19:13 52.73237 12.80139 9842 ft 296 kts 159°
2026-05-06 19:13 52.71380 12.81528 9843 ft 291 kts 159°
2026-05-06 19:13 52.69537 12.82900 9844 ft 290 kts 159°
2026-05-06 19:14 52.67692 12.84272 9847 ft 290 kts 159°
2026-05-06 19:14 52.65852 12.85635 9846 ft 290 kts 159°
2026-05-06 19:14 52.64012 12.86999 9836 ft 291 kts 159°
2026-05-06 19:14 52.62166 12.88373 9838 ft 291 kts 159°
2026-05-06 19:15 52.60317 12.89751 9636 ft 292 kts 159°
2026-05-06 19:15 52.58479 12.91121 9295 ft 289 kts 159°
2026-05-06 19:15 52.56677 12.92467 8931 ft 286 kts 159°
2026-05-06 19:15 52.54868 12.93816 8526 ft 284 kts 159°
2026-05-06 19:16 52.53077 12.95144 8168 ft 280 kts 158°
2026-05-06 19:16 52.51313 12.96451 7851 ft 276 kts 158°
2026-05-06 19:16 52.49581 12.97734 7520 ft 271 kts 158°
2026-05-06 19:16 52.48449 12.98569 7307 ft 269 kts 158°
2026-05-06 19:17 52.46755 12.99817 6988 ft 265 kts 158°
2026-05-06 19:17 52.45099 13.01038 6666 ft 261 kts 158°
2026-05-06 19:17 52.43452 13.02255 6342 ft 257 kts 158°
2026-05-06 19:17 52.41836 13.03450 6008 ft 254 kts 158°
2026-05-06 19:18 52.40238 13.04629 5672 ft 251 kts 158°
2026-05-06 19:18 52.38654 13.05793 5348 ft 249 kts 158°
2026-05-06 19:18 52.37078 13.06947 5017 ft 247 kts 157°
2026-05-06 19:18 52.35519 13.08094 4689 ft 245 kts 157°
2026-05-06 19:19 52.33972 13.09232 4352 ft 243 kts 156°
2026-05-06 19:19 52.32438 13.10358 4015 ft 241 kts 156°
2026-05-06 19:19 52.30922 13.11475 3683 ft 238 kts 154°
2026-05-06 19:19 52.29584 13.12966 3451 ft 230 kts 134°
2026-05-06 19:20 52.28658 13.15010 3274 ft 221 kts 115°
2026-05-06 19:20 52.28192 13.17340 3114 ft 212 kts 97°
2026-05-06 19:20 52.28176 13.19639 3007 ft 201 kts 82°
2026-05-06 19:20 52.28535 13.21784 2986 ft 190 kts 69°
2026-05-06 19:21 52.29002 13.23713 2992 ft 182 kts 69°
2026-05-06 19:21 52.29447 13.25559 2913 ft 171 kts 69°
2026-05-06 19:21 52.29874 13.27334 2713 ft 163 kts 69°
2026-05-06 19:21 52.30272 13.28987 2525 ft 147 kts 69°
2026-05-06 19:22 52.30619 13.30435 2332 ft 130 kts 69°
2026-05-06 19:22 52.30939 13.31769 2163 ft 124 kts 68°
2026-05-06 19:22 52.31249 13.33060 1997 ft 121 kts 68°
2026-05-06 19:22 52.31552 13.34325 1838 ft 118 kts 68°
2026-05-06 19:23 52.31854 13.35581 1684 ft 119 kts 68°
2026-05-06 19:23 52.32158 13.36844 1502 ft 120 kts 68°
2026-05-06 19:23 52.32460 13.38119 1332 ft 121 kts 68°
2026-05-06 19:23 52.32771 13.39413 1141 ft 124 kts 68°
2026-05-06 19:24 52.33091 13.40733 965 ft 125 kts 68°
2026-05-06 19:24 52.33408 13.42080 781 ft 126 kts 69°
2026-05-06 19:24 52.33720 13.43401 624 ft 124 kts 68°
2026-05-06 19:24 52.34030 13.44692 451 ft 123 kts 67°
2026-05-06 19:25 52.34340 13.45985 301 ft 120 kts 68°
2026-05-06 19:25 52.34624 13.47185 182 ft 118 kts 68°
2026-05-06 19:25 52.34882 13.48270 154 ft 85 kts 68°
2026-05-06 19:25 52.35027 13.48872 154 ft 30 kts 69°
2026-05-06 19:26 52.35096 13.49156 154 ft 26 kts 68°
2026-05-06 19:26 52.35162 13.49424 154 ft 25 kts 68°
2026-05-06 19:26 52.35227 13.49692 154 ft 26 kts 68°
2026-05-06 19:26 52.35301 13.49882 155 ft 13 kts 49°
2026-05-06 19:27 52.35333 13.49938 155 ft 6 kts 47°
2026-05-06 19:27 52.35369 13.49989 155 ft 8 kts 38°
2026-05-06 19:27 52.35398 13.50026 155 ft 0 kts 38°
2026-05-06 19:28 52.35398 13.50027 155 ft 1 kts 38°
2026-05-06 19:28 52.35406 13.50037 155 ft 2 kts 38°
2026-05-06 19:28 52.35414 13.50047 155 ft 2 kts 38°
2026-05-06 19:29 52.35434 13.50072 155 ft 7 kts 38°
2026-05-06 19:29 52.35491 13.50144 155 ft 14 kts 38°
2026-05-06 19:29 52.35575 13.50255 155 ft 16 kts 41°
2026-05-06 19:29 52.35627 13.50422 155 ft 17 kts 70°
2026-05-06 19:30 52.35670 13.50609 155 ft 17 kts 67°
2026-05-06 19:30 52.35713 13.50774 155 ft 15 kts 59°
2026-05-06 19:30 52.35794 13.50827 155 ft 12 kts
2026-05-06 19:30 52.35842 13.50912 155 ft 10 kts 71°
2026-05-06 19:31 52.35864 13.51010 156 ft 8 kts 68°
2026-05-06 19:31 52.35885 13.51098 155 ft 9 kts 69°
2026-05-06 19:31 52.35947 13.51354 155 ft 15 kts 68°
2026-05-06 19:32 52.35984 13.51506 155 ft 14 kts 68°
2026-05-06 19:32 52.36016 13.51641 155 ft 12 kts 69°
2026-05-06 19:32 52.36044 13.51760 155 ft 11 kts 68°
2026-05-06 19:32 52.36093 13.51843 155 ft 10 kts
2026-05-06 19:33 52.36135 13.51768 155 ft 10 kts 278°
2026-05-06 19:33 52.36114 13.51650 155 ft 12 kts 249°
2026-05-06 19:33 52.36084 13.51527 155 ft 11 kts 249°
2026-05-06 19:33 52.36059 13.51414 155 ft 10 kts 250°
2026-05-06 19:34 52.36036 13.51318 155 ft 8 kts 249°
2026-05-06 19:34 52.36021 13.51240 155 ft 6 kts 269°
2026-05-06 19:34 52.36050 13.51206 155 ft 5 kts 340°
2026-05-06 19:34 52.36076 13.51190 155 ft 3 kts 339°
2026-05-06 19:35 52.36090 13.51181 155 ft 1 kts 339°
2026-05-06 19:35 52.36092 13.51179 155 ft 0 kts 339°
2026-05-06 19:35 52.36094 13.51178 155 ft 0 kts 339°
2026-05-06 19:36 52.36095 13.51177 155 ft 0 kts 339°